| time (UTC) | temp C | wind direction | speed KPH | gust KPH | rain 1hr cm | rain 24hr cm | rain mn cm | humidity % | barometer mb |
| 20260507214003 | 13 | 259 | 0.0 | 4.8 | 0.00 | 0.05 | 0.05 | 74 | 1013.5 |
| 20260507213503 | 13 | 293 | 0.0 | 3.2 | 0.00 | 0.05 | 0.05 | 74 | 1013.5 |
| 20260507213003 | 13 | 321 | 0.0 | 3.2 | 0.00 | 0.05 | 0.05 | 74 | 1013.5 |
| 20260507212503 | 13 | 321 | 0.0 | 3.2 | 0.00 | 0.05 | 0.05 | 74 | 1013.6 |
| 20260507212024 | 13 | 290 | 0.0 | 3.2 | 0.00 | 0.05 | 0.05 | 75 | 1013.6 |
| 20260507211503 | 13 | 16 | 0.0 | 3.2 | 0.00 | 0.05 | 0.05 | 74 | 1013.3 |
| 20260507211003 | 13 | 341 | 0.0 | 3.2 | 0.00 | 0.05 | 0.05 | 74 | 1013.5 |
| 20260507210503 | 12 | 359 | 0.0 | 1.6 | 0.00 | 0.05 | 0.05 | 75 | 1013.5 |
| 20260507210024 | 12 | 38 | 0.0 | 1.6 | 0.00 | 0.05 | 0.05 | 76 | 1013.5 |
| 20260507205503 | 12 | 62 | 0.0 | 1.6 | 0.00 | 0.05 | 0.05 | 79 | 1013.5 |
| 20260507205024 | 12 | 66 | 0.0 | 1.6 | 0.00 | 0.05 | 0.05 | 79 | 1013.2 |
| 20260507204504 | 12 | 73 | 0.0 | 1.6 | 0.00 | 0.05 | 0.05 | 79 | 1013.2 |
| 20260507204003 | 11 | 71 | 0.0 | 1.6 | 0.00 | 0.05 | 0.05 | 81 | 1013.0 |
| 20260507203524 | 11 | 67 | 0.0 | 1.6 | 0.00 | 0.05 | 0.05 | 82 | 1013.0 |
| 20260507203003 | 12 | 45 | 0.0 | 1.6 | 0.00 | 0.05 | 0.05 | 80 | 1013.0 |
| 20260507202503 | 12 | 43 | 0.0 | 3.2 | 0.00 | 0.05 | 0.05 | 78 | 1012.9 |
| 20260507202004 | 12 | 40 | 0.0 | 3.2 | 0.00 | 0.05 | 0.05 | 78 | 1012.9 |
| 20260507201503 | 11 | 38 | 0.0 | 3.2 | 0.00 | 0.05 | 0.05 | 80 | 1012.8 |
| 20260507201003 | 11 | 34 | 0.0 | 1.6 | 0.00 | 0.05 | 0.05 | 83 | 1012.8 |
| 20260507200503 | 11 | 34 | 0.0 | 1.6 | 0.00 | 0.05 | 0.05 | 81 | 1012.7 |
| 20260507200003 | 11 | 34 | 0.0 | 1.6 | 0.00 | 0.05 | 0.05 | 82 | 1012.6 |
| 20260507195503 | 11 | 34 | 0.0 | 1.6 | 0.00 | 0.05 | 0.05 | 82 | 1012.4 |
| 20260507195003 | 12 | 34 | 0.0 | 1.6 | 0.00 | 0.05 | 0.05 | 82 | 1012.3 |
| 20260507194503 | 12 | 0 | 0.0 | 0.0 | 0.00 | 0.05 | 0.05 | 81 | 1012.3 |
| 20260507194003 | 12 | 34 | 0.0 | 1.6 | 0.00 | 0.05 | 0.05 | 77 | 1012.0 |
| 20260507193503 | 12 | 34 | 0.0 | 1.6 | 0.00 | 0.05 | 0.05 | 77 | 1012.5 |
| 20260507193003 | 12 | 34 | 0.0 | 1.6 | 0.00 | 0.05 | 0.05 | 75 | 1012.1 |
| 20260507192524 | 12 | 0 | 0.0 | 0.0 | 0.00 | 0.05 | 0.05 | 76 | 1012.2 |
| 20260507192003 | 12 | 0 | 0.0 | 0.0 | 0.00 | 0.05 | 0.05 | 77 | 1012.1 |
| 20260507191503 | 12 | 0 | 0.0 | 0.0 | 0.00 | 0.05 | 0.05 | 78 | 1012.0 |
| 20260507191003 | 12 | 0 | 0.0 | 0.0 | 0.00 | 0.05 | 0.05 | 77 | 1011.9 |
| 20260507190504 | 12 | 0 | 0.0 | 0.0 | 0.00 | 0.05 | 0.05 | 77 | 1011.8 |
| 20260507190004 | 12 | 0 | 0.0 | 0.0 | 0.00 | 0.05 | 0.05 | 78 | 1011.8 |
| 20260507185503 | 12 | 0 | 0.0 | 0.0 | 0.00 | 0.05 | 0.05 | 77 | 1011.8 |
| 20260507185003 | 13 | 0 | 0.0 | 0.0 | 0.00 | 0.05 | 0.05 | 79 | 1011.7 |
| 20260507184503 | 13 | 0 | 0.0 | 0.0 | 0.00 | 0.05 | 0.05 | 82 | 1011.4 |
| 20260507184003 | 13 | 0 | 0.0 | 0.0 | 0.00 | 0.05 | 0.05 | 79 | 1011.5 |
| 20260507183503 | 14 | 0 | 0.0 | 0.0 | 0.00 | 0.05 | 0.05 | 76 | 1011.4 |
| 20260507183003 | 15 | 0 | 0.0 | 0.0 | 0.00 | 0.05 | 0.05 | 70 | 1011.2 |
| 20260507182503 | 15 | 0 | 0.0 | 0.0 | 0.00 | 0.05 | 0.05 | 67 | 1011.1 |
| 20260507182004 | 15 | 34 | 0.0 | 1.6 | 0.00 | 0.05 | 0.05 | 67 | 1011.1 |
| 20260507181503 | 15 | 34 | 0.0 | 1.6 | 0.00 | 0.05 | 0.05 | 67 | 1011.3 |
| 20260507181024 | 15 | 34 | 0.0 | 1.6 | 0.00 | 0.05 | 0.05 | 66 | 1011.3 |
| 20260507180524 | 15 | 0 | 0.0 | 0.0 | 0.00 | 0.05 | 0.05 | 65 | 1011.1 |
| 20260507180024 | 16 | 34 | 0.0 | 1.6 | 0.00 | 0.05 | 0.05 | 64 | 1011.2 |
| 20260507175503 | 16 | 34 | 0.0 | 1.6 | 0.00 | 0.05 | 0.05 | 63 | 1010.9 |
| 20260507175024 | 16 | 39 | 0.0 | 1.6 | 0.00 | 0.05 | 0.05 | 60 | 1011.0 |
| 20260507174503 | 16 | 42 | 0.0 | 1.6 | 0.00 | 0.05 | 0.05 | 58 | 1011.0 |
| 20260507174003 | 16 | 50 | 0.0 | 4.8 | 0.00 | 0.05 | 0.05 | 57 | 1011.1 |
| 20260507173503 | 16 | 349 | 0.0 | 4.8 | 0.00 | 0.05 | 0.05 | 57 | 1010.9 |
| 20260507173004 | 17 | 334 | 0.0 | 3.2 | 0.00 | 0.05 | 0.05 | 57 | 1010.8 |
| 20260507172524 | 17 | 40 | 0.0 | 3.2 | 0.00 | 0.05 | 0.05 | 57 | 1010.8 |
| 20260507172003 | 17 | 58 | 0.0 | 3.2 | 0.00 | 0.05 | 0.05 | 56 | 1010.8 |
| 20260507171503 | 17 | 69 | 0.0 | 3.2 | 0.00 | 0.05 | 0.05 | 57 | 1010.5 |
| 20260507171003 | 17 | 55 | 0.0 | 3.2 | 0.00 | 0.05 | 0.05 | 57 | 1010.4 |
| 20260507170503 | 17 | 24 | 0.0 | 3.2 | 0.00 | 0.05 | 0.05 | 56 | 1010.4 |
| 20260507170024 | 17 | 34 | 0.0 | 3.2 | 0.00 | 0.05 | 0.05 | 56 | 1010.5 |
| 20260507165503 | 17 | 35 | 0.0 | 3.2 | 0.00 | 0.05 | 0.05 | 57 | 1010.8 |
| 20260507165003 | 17 | 59 | 1.6 | 4.8 | 0.00 | 0.05 | 0.05 | 57 | 1010.4 |
| 20260507164524 | 17 | 74 | 1.6 | 4.8 | 0.00 | 0.05 | 0.05 | 58 | 1010.4 |
| 20260507164003 | 17 | 68 | 0.0 | 3.2 | 0.00 | 0.05 | 0.05 | 57 | 1010.2 |
| 20260507163503 | 16 | 79 | 0.0 | 3.2 | 0.00 | 0.05 | 0.05 | 69 | 1010.5 |
| 20260507163003 | 16 | 86 | 0.0 | 1.6 | 0.00 | 0.05 | 0.05 | 78 | 1010.2 |
| 20260507162503 | 15 | 86 | 0.0 | 1.6 | 0.00 | 0.05 | 0.05 | 83 | 1010.2 |
| 20260507162003 | 16 | 86 | 0.0 | 1.6 | 0.00 | 0.05 | 0.05 | 82 | 1010.2 |
| 20260507161524 | 16 | 85 | 0.0 | 1.6 | 0.00 | 0.05 | 0.05 | 80 | 1010.2 |
| 20260507161003 | 16 | 93 | 0.0 | 3.2 | 0.00 | 0.05 | 0.05 | 78 | 1009.9 |
| 20260507160024 | 16 | 92 | 1.6 | 3.2 | 0.00 | 0.05 | 0.05 | 75 | 1009.9 |
| 20260507155503 | 17 | 103 | 1.6 | 3.2 | 0.00 | 0.05 | 0.05 | 78 | 1010.0 |
| 20260507155003 | 17 | 106 | 0.0 | 3.2 | 0.00 | 0.05 | 0.05 | 79 | 1009.9 |
| 20260507154503 | 17 | 109 | 0.0 | 1.6 | 0.00 | 0.05 | 0.05 | 73 | 1010.2 |
| 20260507154003 | 17 | 113 | 0.0 | 4.8 | 0.00 | 0.05 | 0.05 | 71 | 1010.2 |
| 20260507153524 | 18 | 171 | 1.6 | 4.8 | 0.00 | 0.05 | 0.05 | 63 | 1010.2 |
| 20260507153024 | 18 | 200 | 1.6 | 4.8 | 0.00 | 0.05 | 0.05 | 58 | 1010.5 |
| 20260507152503 | 18 | 145 | 1.6 | 9.7 | 0.00 | 0.05 | 0.05 | 55 | 1010.2 |
| 20260507152003 | 18 | 129 | 1.6 | 9.7 | 0.00 | 0.05 | 0.05 | 63 | 1010.2 |
| 20260507151504 | 18 | 130 | 1.6 | 9.7 | 0.00 | 0.05 | 0.05 | 56 | 1010.2 |
| 20260507151003 | 17 | 104 | 1.6 | 3.2 | 0.03 | 0.05 | 0.05 | 61 | 1010.2 |
| 20260507150524 | 17 | 109 | 1.6 | 3.2 | 0.03 | 0.05 | 0.05 | 75 | 1010.2 |
| 20260507150004 | 17 | 224 | 1.6 | 4.8 | 0.03 | 0.05 | 0.05 | 72 | 1010.4 |
| 20260507145503 | 17 | 217 | 1.6 | 4.8 | 0.03 | 0.05 | 0.05 | 67 | 1010.2 |
| 20260507145003 | 17 | 111 | 1.6 | 4.8 | 0.03 | 0.05 | 0.05 | 64 | 1010.2 |
| 20260507144503 | 17 | 105 | 1.6 | 4.8 | 0.03 | 0.05 | 0.05 | 69 | 1010.4 |
| 20260507144003 | 17 | 99 | 1.6 | 4.8 | 0.03 | 0.05 | 0.05 | 69 | 1010.2 |
| 20260507143503 | 17 | 92 | 3.2 | 4.8 | 0.03 | 0.05 | 0.05 | 74 | 1010.0 |
| 20260507143003 | 16 | 97 | 1.6 | 4.8 | 0.03 | 0.05 | 0.05 | 80 | 1010.2 |
| 20260507142503 | 16 | 104 | 1.6 | 3.2 | 0.03 | 0.05 | 0.05 | 82 | 1010.2 |
| 20260507142003 | 16 | 115 | 1.6 | 3.2 | 0.05 | 0.05 | 0.05 | 79 | 1010.0 |
| 20260507141503 | 17 | 162 | 1.6 | 3.2 | 0.05 | 0.05 | 0.05 | 79 | 1010.0 |
| 20260507141003 | 17 | 130 | 1.6 | 3.2 | 0.03 | 0.03 | 0.03 | 74 | 1010.2 |
| 20260507140503 | 17 | 94 | 1.6 | 4.8 | 0.03 | 0.03 | 0.03 | 67 | 1010.2 |
| 20260507140004 | 17 | 91 | 3.2 | 6.4 | 0.03 | 0.03 | 0.03 | 65 | 1010.2 |
| 20260507135524 | 17 | 84 | 3.2 | 6.4 | 0.03 | 0.03 | 0.03 | 57 | 1010.2 |
| 20260507135003 | 18 | 83 | 1.6 | 3.2 | 0.03 | 0.03 | 0.03 | 63 | 1010.2 |
| 20260507134503 | 18 | 98 | 0.0 | 1.6 | 0.03 | 0.03 | 0.03 | 63 | 1010.2 |
| 20260507134003 | 17 | 93 | 1.6 | 3.2 | 0.03 | 0.03 | 0.03 | 68 | 1010.2 |
| 20260507133503 | 16 | 96 | 1.6 | 4.8 | 0.03 | 0.03 | 0.03 | 79 | 1010.2 |
| 20260507133003 | 16 | 129 | 1.6 | 4.8 | 0.03 | 0.03 | 0.03 | 82 | 1010.0 |
| 20260507132524 | 16 | 236 | 1.6 | 12.9 | 0.03 | 0.03 | 0.03 | 70 | 1010.4 |
| 20260507132003 | 17 | 237 | 3.2 | 12.9 | 0.00 | 0.00 | 0.00 | 61 | 1010.2 |
| 20260507131503 | 17 | 224 | 3.2 | 12.9 | 0.00 | 0.00 | 0.00 | 58 | 1010.6 |
| 20260507131024 | 18 | 146 | 1.6 | 12.9 | 0.00 | 0.00 | 0.00 | 60 | 1010.2 |
| 20260507130503 | 18 | 141 | 1.6 | 12.9 | 0.00 | 0.00 | 0.00 | 60 | 1010.2 |
| 20260507130004 | 18 | 203 | 1.6 | 12.9 | 0.00 | 0.00 | 0.00 | 53 | 1010.2 |
| 20260507125503 | 19 | 244 | 3.2 | 6.4 | 0.00 | 0.00 | 0.00 | 48 | 1010.3 |
| 20260507125024 | 19 | 237 | 3.2 | 11.3 | 0.00 | 0.00 | 0.00 | 48 | 1010.2 |
| 20260507124503 | 20 | 215 | 3.2 | 11.3 | 0.00 | 0.00 | 0.00 | 44 | 1010.2 |
| 20260507124024 | 20 | 178 | 1.6 | 6.4 | 0.00 | 0.00 | 0.00 | 44 | 1010.2 |
| 20260507123503 | 20 | 182 | 1.6 | 9.7 | 0.00 | 0.00 | 0.00 | 45 | 1010.3 |
| 20260507123003 | 20 | 208 | 1.6 | 9.7 | 0.00 | 0.00 | 0.00 | 45 | 1010.2 |
| 20260507122503 | 19 | 229 | 1.6 | 11.3 | 0.00 | 0.00 | 0.00 | 48 | 1010.2 |
| 20260507122003 | 19 | 230 | 3.2 | 11.3 | 0.00 | 0.00 | 0.00 | 48 | 1010.2 |
| 20260507121503 | 20 | 232 | 3.2 | 11.3 | 0.00 | 0.00 | 0.00 | 48 | 1010.2 |
| 20260507121024 | 20 | 236 | 4.8 | 9.7 | 0.00 | 0.00 | 0.00 | 45 | 1010.3 |
| 20260507120503 | 19 | 231 | 4.8 | 14.5 | 0.00 | 0.00 | 0.00 | 46 | 1010.2 |
| 20260507120004 | 20 | 229 | 3.2 | 14.5 | 0.00 | 0.00 | 0.00 | 46 | 1010.2 |
| 20260507115503 | 21 | 238 | 3.2 | 12.9 | 0.00 | 0.00 | 0.00 | 44 | 1010.2 |
| 20260507115003 | 20 | 233 | 4.8 | 12.9 | 0.00 | 0.00 | 0.00 | 44 | 1010.2 |
| 20260507114504 | 19 | 224 | 4.8 | 12.9 | 0.00 | 0.00 | 0.00 | 46 | 1010.2 |
| 20260507114003 | 20 | 224 | 4.8 | 12.9 | 0.00 | 0.00 | 0.00 | 46 | 1010.2 |
| 20260507113503 | 20 | 233 | 4.8 | 12.9 | 0.00 | 0.00 | 0.00 | 46 | 1010.2 |
| 20260507113024 | 20 | 235 | 6.4 | 17.7 | 0.00 | 0.00 | 0.00 | 45 | 1010.5 |
| 20260507112503 | 21 | 234 | 9.7 | 24.1 | 0.00 | 0.00 | 0.00 | 44 | 1010.4 |
| 20260507112004 | 20 | 203 | 8.0 | 24.1 | 0.00 | 0.00 | 0.00 | 45 | 1010.4 |
| 20260507111504 | 20 | 115 | 6.4 | 16.1 | 0.00 | 0.00 | 0.00 | 47 | 1010.3 |
| 20260507111003 | 21 | 137 | 4.8 | 14.5 | 0.00 | 0.00 | 0.00 | 48 | 1010.2 |
| 20260507110503 | 20 | 133 | 4.8 | 14.5 | 0.00 | 0.00 | 0.00 | 50 | 1010.3 |
| 20260507110003 | 20 | 108 | 4.8 | 14.5 | 0.00 | 0.00 | 0.00 | 52 | 1010.2 |
| 20260507105524 | 20 | 136 | 3.2 | 9.7 | 0.00 | 0.00 | 0.00 | 51 | 1010.2 |
| 20260507105003 | 21 | 204 | 3.2 | 9.7 | 0.00 | 0.00 | 0.00 | 49 | 1010.3 |
| 20260507104504 | 20 | 140 | 3.2 | 14.5 | 0.00 | 0.00 | 0.00 | 51 | 1010.2 |
| 20260507104024 | 20 | 160 | 4.8 | 14.5 | 0.00 | 0.00 | 0.00 | 53 | 1010.4 |
| 20260507103524 | 20 | 191 | 4.8 | 14.5 | 0.00 | 0.00 | 0.00 | 55 | 1010.3 |
| 20260507103003 | 20 | 143 | 3.2 | 9.7 | 0.00 | 0.00 | 0.00 | 57 | 1010.4 |
| 20260507102524 | 20 | 188 | 3.2 | 9.7 | 0.00 | 0.00 | 0.00 | 56 | 1010.5 |
| 20260507102003 | 20 | 165 | 3.2 | 6.4 | 0.00 | 0.00 | 0.00 | 58 | 1010.6 |
| 20260507101503 | 20 | 173 | 1.6 | 6.4 | 0.00 | 0.00 | 0.00 | 54 | 1010.4 |
| 20260507101003 | 20 | 151 | 1.6 | 6.4 | 0.00 | 0.00 | 0.00 | 56 | 1010.4 |
| 20260507100503 | 20 | 160 | 1.6 | 11.3 | 0.00 | 0.00 | 0.00 | 56 | 1010.4 |
| 20260507100004 | 18 | 209 | 3.2 | 11.3 | 0.00 | 0.00 | 0.00 | 58 | 1010.6 |
| 20260507095504 | 18 | 222 | 3.2 | 11.3 | 0.00 | 0.00 | 0.00 | 62 | 1010.6 |
| 20260507095003 | 17 | 228 | 3.2 | 11.3 | 0.00 | 0.00 | 0.00 | 63 | 1010.8 |
| 20260507094503 | 18 | 230 | 3.2 | 9.7 | 0.00 | 0.00 | 0.00 | 61 | 1010.5 |
| 20260507094003 | 18 | 235 | 3.2 | 9.7 | 0.00 | 0.00 | 0.00 | 61 | 1010.3 |
| 20260507093503 | 17 | 237 | 3.2 | 9.7 | 0.00 | 0.00 | 0.00 | 64 | 1010.5 |
| 20260507093003 | 17 | 236 | 3.2 | 9.7 | 0.00 | 0.00 | 0.00 | 65 | 1010.3 |
| 20260507092504 | 17 | 237 | 1.6 | 9.7 | 0.00 | 0.00 | 0.00 | 64 | 1010.5 |
| 20260507092003 | 17 | 237 | 3.2 | 11.3 | 0.00 | 0.00 | 0.00 | 64 | 1010.4 |
| 20260507091503 | 16 | 238 | 3.2 | 11.3 | 0.00 | 0.00 | 0.00 | 64 | 1010.3 |
| 20260507091003 | 17 | 239 | 1.6 | 4.8 | 0.00 | 0.00 | 0.00 | 64 | 1010.3 |
| 20260507090503 | 17 | 239 | 1.6 | 4.8 | 0.00 | 0.00 | 0.00 | 63 | 1010.2 |
| 20260507090004 | 17 | 244 | 1.6 | 9.7 | 0.00 | 0.00 | 0.00 | 63 | 1010.2 |
| 20260507085503 | 16 | 242 | 1.6 | 9.7 | 0.00 | 0.00 | 0.00 | 64 | 1010.2 |
| 20260507085003 | 16 | 240 | 3.2 | 9.7 | 0.00 | 0.00 | 0.00 | 65 | 1010.2 |
| 20260507084503 | 16 | 239 | 3.2 | 11.3 | 0.00 | 0.00 | 0.00 | 66 | 1010.0 |
| 20260507084003 | 16 | 237 | 4.8 | 11.3 | 0.00 | 0.00 | 0.00 | 65 | 1009.9 |
| 20260507083503 | 16 | 236 | 4.8 | 11.3 | 0.00 | 0.00 | 0.00 | 66 | 1010.0 |
| 20260507083004 | 16 | 239 | 3.2 | 11.3 | 0.00 | 0.00 | 0.00 | 66 | 1009.9 |
| 20260507082503 | 17 | 240 | 3.2 | 9.7 | 0.00 | 0.00 | 0.00 | 63 | 1010.0 |
| 20260507082003 | 17 | 239 | 3.2 | 9.7 | 0.00 | 0.00 | 0.00 | 64 | 1009.7 |
| 20260507081503 | 16 | 238 | 1.6 | 9.7 | 0.00 | 0.00 | 0.00 | 67 | 1009.9 |
| 20260507081024 | 16 | 239 | 1.6 | 6.4 | 0.00 | 0.00 | 0.00 | 67 | 1010.0 |
| 20260507080503 | 16 | 238 | 3.2 | 11.3 | 0.00 | 0.00 | 0.00 | 69 | 1009.9 |
| 20260507080004 | 15 | 236 | 3.2 | 11.3 | 0.00 | 0.00 | 0.00 | 69 | 1009.9 |
| 20260507075503 | 16 | 237 | 1.6 | 9.7 | 0.00 | 0.00 | 0.00 | 69 | 1009.9 |
| 20260507075003 | 16 | 239 | 1.6 | 6.4 | 0.00 | 0.00 | 0.00 | 69 | 1009.5 |
| 20260507074503 | 16 | 238 | 1.6 | 9.7 | 0.00 | 0.00 | 0.00 | 69 | 1009.7 |
| 20260507074003 | 16 | 236 | 3.2 | 12.9 | 0.00 | 0.00 | 0.00 | 71 | 1009.8 |
| 20260507073524 | 15 | 236 | 4.8 | 12.9 | 0.00 | 0.00 | 0.00 | 71 | 1009.9 |
| 20260507073024 | 15 | 237 | 4.8 | 12.9 | 0.00 | 0.00 | 0.00 | 72 | 1009.7 |
| 20260507072503 | 15 | 239 | 3.2 | 9.7 | 0.00 | 0.00 | 0.00 | 72 | 1009.9 |
| 20260507072003 | 15 | 238 | 3.2 | 9.7 | 0.00 | 0.00 | 0.00 | 71 | 1009.6 |
| 20260507071504 | 15 | 239 | 3.2 | 9.7 | 0.00 | 0.00 | 0.00 | 72 | 1009.5 |
| 20260507071003 | 15 | 234 | 3.2 | 9.7 | 0.00 | 0.00 | 0.00 | 73 | 1009.7 |
| 20260507070503 | 15 | 233 | 1.6 | 9.7 | 0.00 | 0.00 | 0.00 | 72 | 1009.5 |
| 20260507070024 | 15 | 241 | 1.6 | 9.7 | 0.00 | 0.00 | 0.00 | 73 | 1009.6 |
| 20260507065525 | 15 | 241 | 1.6 | 9.7 | 0.00 | 0.00 | 0.00 | 77 | 1009.3 |
| 20260507065003 | 15 | 239 | 4.8 | 12.9 | 0.00 | 0.00 | 0.00 | 77 | 1009.4 |
| 20260507064504 | 14 | 239 | 3.2 | 12.9 | 0.00 | 0.00 | 0.00 | 79 | 1009.4 |
| 20260507064004 | 15 | 240 | 1.6 | 6.4 | 0.00 | 0.00 | 0.00 | 79 | 1009.4 |
| 20260507063503 | 15 | 242 | 1.6 | 4.8 | 0.00 | 0.00 | 0.00 | 79 | 1009.4 |
| 20260507063003 | 15 | 240 | 1.6 | 6.4 | 0.00 | 0.00 | 0.00 | 80 | 1009.3 |
| 20260507062503 | 14 | 242 | 1.6 | 6.4 | 0.00 | 0.00 | 0.00 | 82 | 1009.3 |
| 20260507062003 | 13 | 243 | 1.6 | 6.4 | 0.00 | 0.00 | 0.00 | 83 | 1009.3 |
| 20260507061503 | 13 | 241 | 1.6 | 6.4 | 0.00 | 0.00 | 0.00 | 83 | 1009.1 |
| 20260507061003 | 13 | 240 | 1.6 | 6.4 | 0.00 | 0.00 | 0.00 | 83 | 1009.4 |
| 20260507060503 | 13 | 241 | 1.6 | 6.4 | 0.00 | 0.00 | 0.00 | 85 | 1009.1 |
| 20260507060004 | 13 | 242 | 0.0 | 3.2 | 0.00 | 0.00 | 0.00 | 84 | 1008.9 |
| 20260507055503 | 13 | 0 | 0.0 | 0.0 | 0.00 | 0.00 | 0.00 | 86 | 1009.1 |
| 20260507055024 | 13 | 0 | 0.0 | 0.0 | 0.00 | 0.00 | 0.00 | 86 | 1009.1 |
| 20260507054503 | 12 | 0 | 0.0 | 0.0 | 0.00 | 0.00 | 0.00 | 87 | 1009.2 |
| 20260507054003 | 12 | 0 | 0.0 | 0.0 | 0.00 | 0.00 | 0.00 | 87 | 1008.9 |
| 20260507053503 | 12 | 0 | 0.0 | 0.0 | 0.00 | 0.00 | 0.00 | 89 | 1008.6 |
| 20260507053024 | 11 | 251 | 0.0 | 1.6 | 0.00 | 0.00 | 0.00 | 89 | 1008.9 |
| 20260507052503 | 11 | 250 | 0.0 | 1.6 | 0.00 | 0.00 | 0.00 | 91 | 1008.9 |
| 20260507052003 | 11 | 250 | 0.0 | 1.6 | 0.00 | 0.00 | 0.00 | 92 | 1008.7 |
| 20260507051503 | 11 | 250 | 0.0 | 1.6 | 0.00 | 0.00 | 0.00 | 91 | 1008.7 |
| 20260507051003 | 10 | 0 | 0.0 | 0.0 | 0.00 | 0.00 | 0.00 | 92 | 1008.7 |
| 20260507050503 | 10 | 252 | 0.0 | 1.6 | 0.00 | 0.00 | 0.00 | 93 | 1008.7 |
| 20260507050024 | 10 | 252 | 0.0 | 1.6 | 0.00 | 0.00 | 0.00 | 93 | 1008.5 |
| 20260507045503 | 10 | 250 | 0.0 | 1.6 | 0.00 | 0.00 | 0.00 | 94 | 1008.7 |
| 20260507045003 | 10 | 249 | 0.0 | 1.6 | 0.00 | 0.00 | 0.00 | 94 | 1008.5 |
| 20260507044503 | 10 | 248 | 0.0 | 1.6 | 0.00 | 0.00 | 0.00 | 94 | 1008.6 |
| 20260507044003 | 10 | 248 | 0.0 | 1.6 | 0.00 | 0.00 | 0.00 | 96 | 1008.2 |
| 20260507043503 | 9 | 0 | 0.0 | 0.0 | 0.00 | 0.00 | 0.00 | 96 | 1008.4 |
| 20260507043003 | 9 | 248 | 0.0 | 1.6 | 0.00 | 0.00 | 0.00 | 96 | 1008.2 |
| 20260507042503 | 9 | 248 | 0.0 | 1.6 | 0.00 | 0.00 | 0.00 | 96 | 1008.0 |
| 20260507042024 | 9 | 0 | 0.0 | 0.0 | 0.00 | 0.00 | 0.00 | 96 | 1008.0 |
| 20260507041524 | 9 | 0 | 0.0 | 0.0 | 0.00 | 0.00 | 0.00 | 96 | 1008.0 |
| 20260507041003 | 9 | 0 | 0.0 | 0.0 | 0.00 | 0.00 | 0.00 | 96 | 1007.8 |
| 20260507040503 | 9 | 248 | 0.0 | 1.6 | 0.00 | 0.00 | 0.00 | 96 | 1007.9 |
| 20260507040004 | 9 | 248 | 0.0 | 1.6 | 0.00 | 0.00 | 0.00 | 97 | 1007.8 |
| 20260507035504 | 9 | 248 | 0.0 | 1.6 | 0.00 | 0.00 | 0.00 | 97 | 1007.7 |
| 20260507035003 | 9 | 0 | 0.0 | 0.0 | 0.00 | 0.00 | 0.00 | 97 | 1007.8 |
| 20260507034503 | 8 | 0 | 0.0 | 0.0 | 0.00 | 0.00 | 0.00 | 97 | 1007.6 |
| 20260507034003 | 8 | 0 | 0.0 | 0.0 | 0.00 | 0.00 | 0.00 | 97 | 1007.8 |
| 20260507033503 | 8 | 0 | 0.0 | 0.0 | 0.00 | 0.00 | 0.00 | 97 | 1007.7 |
| 20260507033003 | 9 | 0 | 0.0 | 0.0 | 0.00 | 0.00 | 0.00 | 97 | 1007.7 |
| 20260507032525 | 9 | 0 | 0.0 | 0.0 | 0.00 | 0.00 | 0.00 | 97 | 1007.9 |
| 20260507032024 | 9 | 249 | 0.0 | 1.6 | 0.00 | 0.00 | 0.00 | 97 | 1007.3 |
| 20260507031503 | 9 | 249 | 0.0 | 1.6 | 0.00 | 0.00 | 0.00 | 97 | 1007.5 |
| 20260507031003 | 9 | 249 | 0.0 | 1.6 | 0.00 | 0.00 | 0.00 | 97 | 1007.3 |
| 20260507030503 | 9 | 0 | 0.0 | 0.0 | 0.00 | 0.00 | 0.00 | 97 | 1007.0 |
| 20260507030004 | 9 | 0 | 0.0 | 0.0 | 0.00 | 0.00 | 0.00 | 96 | 1007.2 |
| 20260507025503 | 9 | 0 | 0.0 | 0.0 | 0.00 | 0.00 | 0.00 | 96 | 1007.3 |
| 20260507025003 | 9 | 0 | 0.0 | 0.0 | 0.00 | 0.00 | 0.00 | 96 | 1007.1 |
| 20260507024503 | 9 | 250 | 0.0 | 3.2 | 0.00 | 0.00 | 0.00 | 95 | 1006.9 |
| 20260507024003 | 10 | 253 | 0.0 | 3.2 | 0.00 | 0.00 | 0.00 | 95 | 1006.8 |
| 20260507023524 | 10 | 254 | 0.0 | 3.2 | 0.00 | 0.00 | 0.00 | 95 | 1007.1 |
| 20260507023003 | 10 | 246 | 0.0 | 1.6 | 0.00 | 0.00 | 0.00 | 95 | 1007.0 |
| 20260507022524 | 10 | 246 | 0.0 | 1.6 | 0.00 | 0.00 | 0.00 | 94 | 1006.8 |
| 20260507022003 | 10 | 246 | 0.0 | 1.6 | 0.00 | 0.00 | 0.00 | 94 | 1006.9 |
| 20260507021503 | 10 | 0 | 0.0 | 0.0 | 0.00 | 0.00 | 0.00 | 94 | 1006.9 |
| 20260507021003 | 10 | 246 | 0.0 | 1.6 | 0.00 | 0.00 | 0.00 | 93 | 1006.9 |
| 20260507020503 | 11 | 246 | 0.0 | 1.6 | 0.00 | 0.00 | 0.00 | 92 | 1006.8 |
| 20260507020025 | 11 | 246 | 0.0 | 1.6 | 0.00 | 0.00 | 0.00 | 92 | 1007.2 |
| 20260507015503 | 11 | 246 | 0.0 | 1.6 | 0.00 | 0.00 | 0.00 | 91 | 1006.7 |
| 20260507015004 | 11 | 246 | 0.0 | 1.6 | 0.00 | 0.00 | 0.00 | 91 | 1006.5 |
| 20260507014503 | 11 | 246 | 0.0 | 1.6 | 0.00 | 0.00 | 0.00 | 91 | 1006.7 |
| 20260507014003 | 11 | 246 | 0.0 | 1.6 | 0.00 | 0.00 | 0.00 | 92 | 1006.6 |
| 20260507013524 | 11 | 0 | 0.0 | 0.0 | 0.00 | 0.00 | 0.00 | 93 | 1006.5 |
| 20260507013004 | 11 | 245 | 0.0 | 1.6 | 0.00 | 0.00 | 0.00 | 92 | 1006.5 |
| 20260507012503 | 11 | 243 | 0.0 | 1.6 | 0.00 | 0.00 | 0.00 | 92 | 1006.5 |
| 20260507012003 | 11 | 243 | 0.0 | 1.6 | 0.00 | 0.00 | 0.00 | 91 | 1006.3 |
| 20260507011503 | 11 | 245 | 0.0 | 1.6 | 0.00 | 0.00 | 0.00 | 90 | 1006.3 |
| 20260507011003 | 12 | 247 | 0.0 | 1.6 | 0.00 | 0.00 | 0.00 | 89 | 1006.0 |
| 20260507010503 | 12 | 247 | 0.0 | 1.6 | 0.00 | 0.00 | 0.00 | 88 | 1005.9 |
| 20260507010024 | 12 | 248 | 0.0 | 1.6 | 0.00 | 0.00 | 0.00 | 88 | 1005.9 |
| 20260507005503 | 12 | 249 | 0.0 | 1.6 | 0.00 | 0.00 | 0.00 | 87 | 1006.0 |
| 20260507005003 | 12 | 251 | 0.0 | 1.6 | 0.00 | 0.00 | 0.00 | 88 | 1006.0 |
| 20260507004503 | 12 | 251 | 0.0 | 1.6 | 0.00 | 0.00 | 0.00 | 89 | 1005.8 |
| 20260507004003 | 12 | 251 | 0.0 | 1.6 | 0.00 | 0.00 | 0.00 | 89 | 1005.8 |
| 20260507003503 | 12 | 251 | 0.0 | 1.6 | 0.00 | 0.00 | 0.00 | 89 | 1005.8 |
| 20260507003003 | 12 | 0 | 0.0 | 0.0 | 0.00 | 0.00 | 0.00 | 89 | 1005.5 |
| 20260507002524 | 12 | 0 | 0.0 | 0.0 | 0.00 | 0.00 | 0.00 | 89 | 1005.3 |
| 20260507002025 | 11 | 0 | 0.0 | 0.0 | 0.00 | 0.00 | 0.00 | 88 | 1005.4 |
| 20260507001503 | 12 | 0 | 0.0 | 0.0 | 0.00 | 0.00 | 0.00 | 88 | 1005.3 |
| 20260507001003 | 12 | 0 | 0.0 | 0.0 | 0.00 | 0.00 | 0.00 | 88 | 1005.2 |
| 20260507000525 | 12 | 0 | 0.0 | 0.0 | 0.00 | 0.00 | 0.00 | 87 | 1005.2 |
| 20260507000004 | 12 | 256 | 0.0 | 1.6 | 0.00 | 0.00 | 0.00 | 87 | 1005.1 |
| 20260506235503 | 12 | 256 | 0.0 | 1.6 | 0.00 | 0.00 | 0.00 | 87 | 1005.2 |
| 20260506235003 | 12 | 0 | 0.0 | 0.0 | 0.00 | 0.00 | 0.00 | 86 | 1005.3 |
| 20260506234504 | 12 | 256 | 0.0 | 1.6 | 0.00 | 0.00 | 0.00 | 85 | 1004.9 |
| 20260506234024 | 12 | 256 | 0.0 | 1.6 | 0.00 | 0.00 | 0.00 | 85 | 1004.6 |
| 20260506233503 | 13 | 257 | 0.0 | 3.2 | 0.00 | 0.00 | 0.00 | 83 | 1004.5 |
| 20260506233025 | 13 | 256 | 1.6 | 3.2 | 0.00 | 0.00 | 0.00 | 82 | 1004.3 |
| 20260506232503 | 14 | 259 | 1.6 | 3.2 | 0.00 | 0.00 | 0.00 | 80 | 1004.6 |
| 20260506232003 | 14 | 262 | 1.6 | 4.8 | 0.00 | 0.00 | 0.00 | 79 | 1004.4 |
| 20260506231503 | 14 | 260 | 1.6 | 4.8 | 0.00 | 0.00 | 0.00 | 79 | 1004.4 |
| 20260506231024 | 14 | 255 | 1.6 | 4.8 | 0.00 | 0.00 | 0.00 | 79 | 1004.5 |
| 20260506230504 | 14 | 245 | 1.6 | 4.8 | 0.00 | 0.00 | 0.00 | 78 | 1004.6 |
| 20260506230003 | 14 | 236 | 1.6 | 4.8 | 0.00 | 0.00 | 0.00 | 78 | 1004.5 |
| 20260506225503 | 14 | 200 | 1.6 | 4.8 | 0.00 | 0.00 | 0.00 | 78 | 1004.5 |
| 20260506225003 | 15 | 166 | 0.0 | 3.2 | 0.00 | 0.00 | 0.00 | 77 | 1004.2 |
| 20260506224504 | 15 | 218 | 0.0 | 1.6 | 0.00 | 0.00 | 0.00 | 77 | 1004.6 |
| 20260506224003 | 15 | 233 | 0.0 | 1.6 | 0.00 | 0.00 | 0.00 | 77 | 1004.4 |
| 20260506223503 | 15 | 232 | 0.0 | 1.6 | 0.00 | 0.00 | 0.00 | 76 | 1004.3 |
| 20260506223003 | 15 | 198 | 0.0 | 4.8 | 0.00 | 0.00 | 0.00 | 75 | 1004.1 |
| 20260506222504 | 15 | 211 | 1.6 | 4.8 | 0.00 | 0.00 | 0.00 | 74 | 1004.0 |
| 20260506222003 | 15 | 225 | 1.6 | 4.8 | 0.00 | 0.00 | 0.00 | 74 | 1004.2 |
| 20260506221504 | 16 | 217 | 1.6 | 4.8 | 0.00 | 0.00 | 0.00 | 73 | 1004.2 |
| 20260506221003 | 16 | 195 | 1.6 | 4.8 | 0.00 | 0.00 | 0.00 | 73 | 1004.0 |
| 20260506220503 | 16 | 148 | 1.6 | 6.4 | 0.00 | 0.00 | 0.00 | 73 | 1004.0 |
| 20260506220004 | 16 | 130 | 1.6 | 9.7 | 0.00 | 0.00 | 0.00 | 72 | 1004.1 |
| 20260506215503 | 16 | 186 | 1.6 | 9.7 | 0.00 | 0.00 | 0.00 | 72 | 1004.1 |
| 20260506215004 | 16 | 181 | 1.6 | 6.4 | 0.00 | 0.00 | 0.00 | 71 | 1004.1 |
| 20260506214503 | 16 | 203 | 1.6 | 6.4 | 0.00 | 0.00 | 0.00 | 71 | 1004.1 |